Regional Weather Roundup
Issued by NWS Sioux Falls, SD

Home | Current Version | Previous Version | Text Only | Print | Product List | Glossary On
Versions: 1 2 3 4 5 6 7 8 9 10 11 12 13 14 15 16 17 18 19 20 21 22 23 24 25 26 27 28 29 30 31 32 33 34 35 36 37 38 39 40 41 42 43 44 45 46 47 48 49 50
000
ASUS43 KFSD 281810
RWRFSD

WEATHER ROUNDUP FOR SE SOUTH DAKOTA/SW MINNESOTA/NW IOWA
NATIONAL WEATHER SERVICE SIOUX FALLS SD
1200 PM CST FRI NOV 28 2014

NOTE: "FAIR" INDICATES FEW OR NO CLOUDS BELOW 12,000 FEET WITH NO
SIGNIFICANT WEATHER AND OR OBSTRUCTIONS TO VISIBILITY.


SDZ038>040-050-052>070-281900-
SOUTHEAST SOUTH DAKOTA

CITY           SKY/WX    TMP DP  RH WIND       PRES   REMARKS
CHAMBERLAIN    SUNNY     42  27  54 E6        29.67F
6HR MIN TEMP:  20; 6HR MAX TEMP:  42;

HURON          MOSUNNY   32  22  66 E5        29.72F WCI  27
6HR MIN TEMP:  20; 6HR MAX TEMP:  32;

MADISON        FAIR      28  27  93 SE10      29.71F WCI  19
MITCHELL       MOSUNNY   35  26  69 E10       29.71F WCI  27
6HR MIN TEMP:  21; 6HR MAX TEMP:  35;

SIOUX FALLS    PTSUNNY   29  23  78 E10       29.73F WCI  20
6HR MIN TEMP:  19; 6HR MAX TEMP:  30;

WINNER         FAIR      57  29  34 NW8       29.65F
YANKTON        MOSUNNY   37  25  60 E9        29.72F
$$

MNZ071-072-080-081-089-090-097-098-281900-
SOUTHWEST MINNESOTA

CITY           SKY/WX    TMP DP  RH WIND       PRES   REMARKS
FAIRMONT       CLOUDY    21  16  79 SE12      29.83F WCI   9
JACKSON        PTSUNNY   23  18  80 SE9       29.81F WCI  13
LUVERNE        MOSUNNY   30  23  74 E6        29.78F WCI  24
MARSHALL       CLOUDY    18  12  79 E8        29.81F WCI   7
6HR MIN TEMP:  10; 6HR MAX TEMP:  18;

MONTEVIDEO     PTSUNNY   18  14  86 SE10      29.85F WCI   6
PIPESTONE      PTSUNNY   28  23  80 SE10      29.73F WCI  19
REDWOOD FALLS  PTSUNNY   19  13  77 SE13      29.84F WCI   6
TRACY          CLOUDY    23  18  83 SE6       29.80F WCI  15
WINDOM           N/A     23  18  80 SE8       29.79F WCI  14
WORTHINGTON    PTSUNNY   25  19  80 SE9       29.78F WCI  15
$$

IAZ001>003-012>014-020>022-031-032-NEZ013-014-SDZ071-281900-
NORTHWEST IOWA

CITY           SKY/WX    TMP DP  RH WIND       PRES   REMARKS
CHEROKEE       MOSUNNY   33  28  80 SE6       29.78F WCI  27
DENISON        MOSUNNY   37  30  75 S12       29.77F
ESTHERVILLE    PTSUNNY   21  18  88 SE9       29.82F WCI  11
LE MARS        PTSUNNY   34  27  75 SE7       29.78F WCI  28
ORANGE CITY    MOSUNNY   34  27  75 SE6       29.76F WCI  29
SHELDON        MOSUNNY   30  27  86 SE8       29.77F WCI  23
SIOUX CITY     MOSUNNY   40  27  59 SE7       29.77F
6HR MIN TEMP:  24; 6HR MAX TEMP:  40;

SPENCER        PTSUNNY   27  21  78 SE8       29.81F WCI  19
6HR MIN TEMP:  14; 6HR MAX TEMP:  27;

STORM LAKE     PTSUNNY   30  25  80 SE8       29.78F WCI  23
$$

ABBREVIATIONS USED IN REMARKS
   TC - TEMPERATURE IN CELSIUS
  WCI - WIND CHILL INDEX
   HX - HEAT INDEX
  VSB - VISIBILITY




USA.gov is the U.S. government's official web portal to all federal, state and local government web resources and services.